Regional Weather Roundup
Issued by NWS Upton, NY

Current Version | Previous Version | Text Only | Print | Product List | Glossary On
Versions: 1 2 3 4 5 6 7 8 9 10 11 12 13 14 15 16 17 18 19 20 21 22 23 24 25 26 27
000
ASUS41 KOKX 250705
RWROKX

Regional Weather Roundup
National Weather Service New York NY
200 AM EST SUN FEB 25 2018

Note: "FAIR" indicates few or no clouds below 12,000 feet with no
significant weather and/or obstructions to visibility.

NYZ071-072-176-178-NJZ106-104-250800-
New York City Metro Area

CITY           SKY/WX    TMP DP  RH WIND       PRES   REMARKS
Central Park   CLOUDY    43  37  79 E10       30.19F
Bronx Bot Gard   N/A     41  37  87 N15       30.19F
Bronx Lehman C   N/A     43  37  81 E10         N/A
LaGuardia Arpt CLOUDY    43  38  82 NE10      30.18F
Queens College   N/A     43  37  81 NE8         N/A
Kennedy Intl   LGT RAIN  43  39  86 NE12      30.19F
Breezy Point     N/A     41 N/A N/A NE8         N/A
Brooklyn Coll    N/A     45  37  76 NE5         N/A
Staten Island    N/A     43  39  87 E3          N/A
Newark/Liberty CLOUDY    44  38  79 NE9       30.17F
Teterboro      LGT RAIN  44  38  79 MISG      30.17F
$$

NYZ177-179-078>081-250800-
Long Island New York

CITY           SKY/WX    TMP DP  RH WIND       PRES   REMARKS
Jones Beach      N/A     41 N/A N/A NE14        N/A
Wantagh          N/A     43  37  81 NE8         N/A
Hempstead        N/A     43  39  87 N5        30.21F
Matinecock Pt    N/A     41 N/A N/A E15         N/A
Farmingdale    CLOUDY    42  38  85 NE9       30.19F
MacArthur/ISP  CLOUDY    42  39  89 E6        30.20F
Stony Brook U    N/A     41  37  87 E3          N/A
Shirley        CLOUDY    42  40  92 CALM      30.21F
Mt Sinai Harb    N/A    N/A N/A N/A E2          N/A
Westhampton    CLOUDY    43  40  89 E6        30.22F
East Hampton   CLOUDY    42  40  93 E7        30.22S
Southold         N/A     43  39  87 E12         N/A
Montauk          N/A     43  41  93 E7        30.25R
$$

NYZ052-065-067-250800-
Hudson Valley

CITY           SKY/WX    TMP DP  RH WIND       PRES   REMARKS
White Plains   MOCLDY    41  37  86 E8        30.17F
Larchmont Harb   N/A     39 N/A N/A NE13        N/A  WCI  32
Croton On Huds   N/A     39 N/A N/A MISG        N/A
Somers           N/A     39  36  87 E6          N/A  WCI  35
Brewster         N/A     39  34  81 NE3         N/A
Newburgh       CLOUDY    39  36  87 E7        30.19F WCI  34
Montgomery     CLOUDY    39  35  86 NE7       30.16F WCI  34
Otisville        N/A     37  34  87 NE3         N/A
Warwick          N/A     39  36  87 CALM        N/A
Suffern          N/A     39  36  87 E2          N/A
Poughkeepsie   CLOUDY    39  36  89 N5        30.20F
Albany         CLOUDY    33  25  72 N8        30.24F WCI  26
$$

NJZ001-105-106-008-010-013-015-019>022-104-250800-
New Jersey

CITY           SKY/WX    TMP DP  RH WIND       PRES   REMARKS
Newark/Liberty CLOUDY    44  38  79 NE9       30.17F
Teterboro      LGT RAIN  44  38  79 MISG      30.17F
Caldwell       CLOUDY    42  40  92 E8        30.18F
Somerville     CLOUDY    42  40  92 VRB3      30.15F
Linden         CLOUDY    44  37  78 CALM      30.19F
Perth Amboy      N/A     43 N/A N/A E8          N/A
Sussex         LGT RAIN  40  36  86 NE5       30.17F
Andover          N/A     40  39  97 N3        30.15F
Trenton        CLOUDY    46  44  93 E12       30.14F
Millville      LGT RAIN  46  44  93 E13       30.11F FOG
Atlantic City  LGT RAIN  46  45  96 E10       30.14S FOG
Wrightstown    CLOUDY    45  44  96 E8        30.12
Toms River     LGT RAIN  44  43  96 E9        30.17S
Belmar         LGT RAIN  43  42  97 E12       30.18F FOG
$$

PAZ047>061-062-071-250800-
Eastern Pennsylvania

CITY           SKY/WX    TMP DP  RH WIND       PRES   REMARKS
Philadelphia   LGT RAIN  46  44  93 E8        30.13
Allentown      CLOUDY    44  40  85 E10       30.12F
Scranton       LGT RAIN  42  40  92 NE6       30.07F
$$

CTZ002-004>006-009-010-012-RIZ004-006-007-MAZ004-011-015-250800-
Southern New England

 In CT

CITY           SKY/WX    TMP DP  RH WIND       PRES   REMARKS
Bradley Intl   CLOUDY    40  33  76 N7        30.27R
Hartford       CLOUDY    42  37  82 N7        30.25R
Danbury        CLOUDY    40  37  89 NE5       30.21F
Wtrbury/Oxford CLOUDY    40  34  79 E12G20    30.20S WCI  33
Norwalk Harbor   N/A     37 N/A N/A E7          N/A  WCI  32
Bridgeport     CLOUDY    41  37  86 E7        30.21F
Meriden        CLOUDY    41  37  86 N6        30.23R
New Haven      CLOUDY    44  38  79 NE6       30.22R
Chester        CLOUDY    43  39  87 E7        30.21F
Groton         CLOUDY    44  35  70 NE12      30.24R
Willimantic    CLOUDY    42  32  67 E6        30.26R

 In RI

CITY           SKY/WX    TMP DP  RH WIND       PRES   REMARKS
Providence     CLOUDY    42  33  70 NE10      30.28S
Block Island   CLOUDY    40  38  93 E10       30.25R WCI  33
Westerly       CLOUDY    43  36  76 NE7       30.25R

In MA

CITY           SKY/WX    TMP DP  RH WIND       PRES   REMARKS
Boston         MOCLDY    40  33  76 NE15      30.31R WCI  32
Worcester      FAIR      34  25  69 NE9       30.25R WCI  27
Westfield      CLOUDY    38  31  76 NE6       30.27R WCI  33
Provincetown   FAIR      40  34  79 NE12      30.30S WCI  33
Nantucket      CLOUDY    42  41  96 NE8       30.26S
$$

ANZ330-335-338-340-345-350-353-355-250800-
Coastal Marine Observations


STATION/POSITION TIME  SKY/WX   TEMP    WIND        PRES    VSBY  WAVE
                                AIR SEA DIR/SP/G                  HT/PER
                 (UTC)          (F)     (DEG/KT/KT) (MB)    (MI)  (FT/S)
NY Harb Entrance 0650            40 39   80/ 12/ 14 1021.8          2/ 9
20 S Fire Island 0650            43 43   80/ 16/ 17 1021.9          2/ 9
23 SSW Montauk P 0650            43 43   70/ 12/ 14 1023.5          2/ 9
15 E Barnegat Li 0630               42                N/A           2/10
Hudson Canyon    0650            46 46   50/ 14/ 17 1021.4          2/10
Kings Point      0648               39                N/A
Execution Rocks  NOT AVBL
Western LI Sound NOT AVBL
Central LI Sound 0630            40      90/  4/  6   N/A           0
Robbins Reef     0642                    60/ 11/ 13 1022.5
$$


>>>>>>>>>>>>>>>>>>>>>>>>>>>> KEY <<<<<<<<<<<<<<<<<<<<<<<<<<<
>                                                          <
>     SKY/WX - Sky Condition/Present Weather               <
>     TMP    - Temperature in Fahrenheit                   <
>     DP     - Dew Point in Fahrenheit                     <
>     RH     - Relative Humidity in Percent                <
>     WIND   - Direction (from) and Speed in MPH           <
>     PRES   - Mean Sea Level Pressure (inches of Hg)      <
>     WCI    - Wind Chill Index                            <
>     VSB    - Visibility in Miles                         <
>     HX     - Heat Index                                  <
>     TC     - Temperature in Celsius                      <
>     VRB    - Varibale Wind Direction                     <
>                                                          <
>>>>>>>>>>>>>>>>>>>>>>>>>>>> KEY <<<<<<<<<<<<<<<<<<<<<<<<<<<




USA.gov is the U.S. government's official web portal to all federal, state and local government web resources and services.